Date String (YYYY-MM-DD hh:mm:ss) UTC,Instrument flags,absolute air pressure of the measurement (hPa),sample flow rate (lpm),inlet stack bypass flow (lpm),air temperature of the measurement (°C),ambient temperature measured by the external sensor (°C),aerosol sample conditioner tube jacket temperature (°C),OPC LED temperature (°C),internal box temperature (°C),relative humidity of the measurement (%),span deviation,mass concentration of particles derived from Lorenz-Mie calculation of OPC scattering (μg/m³),mass concentration of particles derived from Lorenz-Mie calculation of OPC scattering (μg/m³),mass concentration of particles derived from Lorenz-Mie calculation of OPC scattering (μg/m³)
DateTimeUTC,F1_M11,P_M11,Q1_M11,Q2_M11,T1_M11,T2_M11,T3_M11,T4_M11,T5_M11,U1_M11,ZSPAN_M11,X0_M11,X2_M11,X1_M11
2024-03-22 21:00:00,SystemResetWarning,0827.8,5.00,000.00,023.3,022.7,000.0,031.6,025.1,15.0,0000.0,0018.44,0004.74,0003.45
2024-03-22 21:01:00,SystemResetWarning,0827.7,5.00,000.00,023.3,022.7,000.0,031.6,025.1,15.1,0000.0,0018.56,0004.68,0003.42
2024-03-22 21:02:00,SystemResetWarning,0827.7,5.00,000.00,023.3,022.7,000.0,031.6,025.1,15.0,0000.0,0017.41,0004.66,0003.41
2024-03-22 21:03:00,SystemResetWarning,0827.7,5.00,000.00,023.3,022.7,000.0,031.6,025.1,14.9,0000.0,0016.80,0004.68,0003.40
2024-03-22 21:04:00,SystemResetWarning,0827.7,5.00,000.00,023.3,022.7,000.0,031.6,025.1,15.0,0000.0,0016.07,0004.66,0003.39
2024-03-22 21:05:00,SystemResetWarning,0827.7,5.01,000.00,023.3,022.8,000.0,031.7,025.1,15.2,0000.0,0014.15,0004.63,0003.38
2024-03-22 21:06:00,SystemResetWarning,0827.7,5.00,000.00,023.4,022.8,000.0,031.7,025.1,15.1,0000.0,0014.77,0004.65,0003.38
2024-03-22 21:07:00,SystemResetWarning,0827.7,5.00,000.00,023.4,022.8,000.0,031.7,025.1,15.3,0000.0,0014.29,0004.63,0003.36
2024-03-22 21:08:00,SystemResetWarning,0827.7,5.00,000.00,023.4,022.8,000.0,031.7,025.2,14.9,0000.0,0014.11,0004.61,0003.35
2024-03-22 21:09:00,SystemResetWarning,0827.7,5.00,000.00,023.4,022.8,000.0,031.7,025.2,14.8,0000.0,0014.19,0004.62,0003.34
2024-03-22 21:10:00,SystemResetWarning,0827.7,4.99,000.00,023.4,022.8,000.0,031.7,025.2,14.9,0000.0,0014.05,0004.64,0003.35
2024-03-22 21:11:00,SystemResetWarning,0827.7,4.99,000.00,023.4,022.8,000.0,031.7,025.2,14.8,0000.0,0012.92,0004.62,0003.34
2024-03-22 21:12:00,SystemResetWarning,0827.7,5.00,000.00,023.4,022.8,000.0,031.7,025.2,15.0,0000.0,0013.59,0004.61,0003.32
2024-03-22 21:13:00,SystemResetWarning,0827.7,5.02,000.00,023.4,022.8,000.0,031.8,025.2,14.9,0000.0,0014.19,0004.56,0003.29
2024-03-22 21:14:00,SystemResetWarning,0827.7,5.00,000.00,023.5,022.9,000.0,031.8,025.2,13.9,0000.0,0013.89,0004.48,0003.24
2024-03-22 21:15:00,SystemResetWarning,0827.7,5.00,000.00,023.5,022.9,000.0,031.8,025.2,13.6,0000.0,0013.68,0004.41,0003.19
2024-03-22 21:16:00,SystemResetWarning,0827.7,4.99,000.00,023.5,022.9,000.0,031.8,025.3,13.2,0000.0,0013.74,0004.38,0003.14
2024-03-22 21:17:00,SystemResetWarning,0827.7,4.99,000.00,023.5,022.9,000.0,031.8,025.3,13.8,0000.0,0013.50,0004.34,0003.05
2024-03-22 21:18:00,SystemResetWarning,0827.7,5.00,000.00,023.5,022.9,000.0,031.8,025.3,14.0,0000.0,0013.76,0004.24,0002.95
2024-03-22 21:19:00,SystemResetWarning,0827.7,5.00,000.00,023.5,022.9,000.0,031.8,025.3,13.8,0000.0,0013.50,0004.14,0002.84
2024-03-22 21:20:00,SystemResetWarning,0827.7,5.00,000.00,023.5,023.0,000.0,031.8,025.3,14.1,0000.0,0013.31,0004.06,0002.74
2024-03-22 21:21:00,SystemResetWarning,0827.7,5.00,000.00,023.5,023.0,000.0,031.9,025.3,14.0,0000.0,0013.79,0004.00,0002.66
2024-03-22 21:22:00,SystemResetWarning,0827.7,5.00,000.00,023.6,023.0,000.0,031.9,025.4,14.1,0000.0,0014.51,0004.03,0002.57
2024-03-22 21:23:00,SystemResetWarning,0827.7,5.00,000.00,023.6,023.0,000.0,031.9,025.4,13.8,0000.0,0014.90,0004.05,0002.49
2024-03-22 21:24:00,SystemResetWarning,0827.6,4.99,000.00,023.6,023.0,000.0,031.9,025.4,13.8,0000.0,0013.87,0004.07,0002.44
2024-03-22 21:25:00,SystemResetWarning,0827.6,5.00,000.00,023.6,023.0,000.0,031.9,025.4,13.8,0000.0,0013.61,0004.09,0002.43
2024-03-22 21:26:00,SystemResetWarning,0827.5,5.00,000.00,023.6,023.0,000.0,031.9,025.4,14.0,0000.0,0014.13,0004.16,0002.45
2024-03-22 21:27:00,SystemResetWarning,0827.6,4.99,000.00,023.6,023.0,000.0,031.9,025.4,14.0,0000.0,0014.14,0004.17,0002.48
2024-03-22 21:28:00,SystemResetWarning,0827.6,5.00,000.00,023.6,023.0,000.0,032.0,025.4,13.6,0000.0,0014.41,0004.19,0002.52
2024-03-22 21:29:00,SystemResetWarning,0827.5,5.02,000.00,023.6,023.0,000.0,032.0,025.4,13.8,0000.0,0013.90,0004.21,0002.54
2024-03-22 21:30:00,SystemResetWarning,0827.5,5.00,000.00,023.7,023.0,000.0,032.0,025.5,14.0,0000.0,0014.12,0004.23,0002.58
2024-03-22 21:31:00,SystemResetWarning,0827.5,4.99,000.00,023.7,023.0,000.0,032.0,025.5,14.2,0000.0,0014.83,0004.29,0002.61
2024-03-22 21:32:00,SystemResetWarning,0827.6,4.99,000.00,023.7,023.0,000.0,032.0,025.5,14.3,0000.0,0014.95,0004.34,0002.66
2024-03-22 21:33:00,SystemResetWarning,0827.7,5.00,000.00,023.7,023.0,000.0,032.0,025.5,14.1,0000.0,0014.61,0004.33,0002.72
2024-03-22 21:34:00,SystemResetWarning,0827.6,5.01,000.00,023.7,023.1,000.0,032.0,025.5,14.0,0000.0,0013.84,0004.33,0002.78
2024-03-22 21:35:00,SystemResetWarning,0827.5,5.01,000.00,023.7,023.1,000.0,032.0,025.5,14.1,0000.0,0014.20,0004.31,0002.81
2024-03-22 21:36:00,SystemResetWarning,0827.4,4.99,000.00,023.7,023.1,000.0,032.0,025.5,14.2,0000.0,0014.39,0004.31,0002.83
2024-03-22 21:37:00,SystemResetWarning,0827.4,4.99,000.00,023.7,023.1,000.0,032.1,025.5,14.0,0000.0,0014.17,0004.28,0002.87
2024-03-22 21:38:00,SystemResetWarning,0827.4,5.00,000.00,023.7,023.1,000.0,032.1,025.5,13.9,0000.0,0013.98,0004.30,0002.91
2024-03-22 21:39:00,SystemResetWarning,0827.4,5.01,000.00,023.7,023.1,000.0,032.1,025.5,13.9,0000.0,0013.24,0004.26,0002.93
2024-03-22 21:40:00,SystemResetWarning,0827.4,5.00,000.00,023.8,023.1,000.0,032.1,025.5,14.0,0000.0,0013.86,0004.26,0002.96
2024-03-22 21:41:00,SystemResetWarning,0827.4,4.99,000.00,023.8,023.1,000.0,032.1,025.5,14.2,0000.0,0014.30,0004.34,0002.98
2024-03-22 21:42:00,SystemResetWarning,0827.4,4.99,000.00,023.8,023.1,000.0,032.1,025.5,14.3,0000.0,0014.43,0004.31,0003.00
2024-03-22 21:43:00,SystemResetWarning,0827.4,5.01,000.00,023.8,023.1,000.0,032.1,025.5,14.0,0000.0,0013.69,0004.24,0003.00
2024-03-22 21:44:00,SystemResetWarning,0827.4,5.01,000.00,023.8,023.2,000.0,032.1,025.6,13.9,0000.0,0014.03,0004.23,0002.99
2024-03-22 21:45:00,SystemResetWarning,0827.4,5.00,000.00,023.8,023.2,000.0,032.2,025.6,13.9,0000.0,0013.96,0004.25,0002.97
2024-03-22 21:46:00,SystemResetWarning,0827.4,5.00,000.00,023.8,023.2,000.0,032.2,025.6,14.0,0000.0,0014.16,0004.25,0002.94
2024-03-22 21:47:00,SystemResetWarning,0827.3,5.00,000.00,023.8,023.2,000.0,032.2,025.6,14.0,0000.0,0015.06,0004.24,0002.90
2024-03-22 21:48:00,SystemResetWarning,0827.2,5.00,000.00,023.8,023.2,000.0,032.2,025.6,13.7,0000.0,0015.51,0004.21,0002.85
2024-03-22 21:49:00,SystemResetWarning,0827.2,5.00,000.00,023.8,023.2,000.0,032.2,025.6,13.3,0000.0,0015.65,0004.19,0002.80
2024-03-22 21:50:00,SystemResetWarning,0827.2,5.01,000.00,023.9,023.2,000.0,032.2,025.6,13.3,0000.0,0015.77,0004.20,0002.77
2024-03-22 21:51:00,SystemResetWarning,0827.2,5.00,000.00,023.9,023.2,000.0,032.2,025.6,13.4,0000.0,0015.37,0004.19,0002.72
2024-03-22 21:52:00,SystemResetWarning,0827.2,5.01,000.00,023.9,023.3,000.0,032.2,025.6,13.4,0000.0,0014.81,0004.12,0002.69
2024-03-22 21:53:00,SystemResetWarning,0827.2,5.00,000.00,023.9,023.3,000.0,032.3,025.7,13.7,0000.0,0013.98,0004.14,0002.66
2024-03-22 21:54:00,SystemResetWarning,0827.2,5.00,000.00,023.9,023.3,000.0,032.3,025.7,13.8,0000.0,0014.16,0004.16,0002.63
2024-03-22 21:55:00,SystemResetWarning,0827.2,5.00,000.00,023.9,023.3,000.0,032.3,025.7,14.0,0000.0,0013.54,0004.18,0002.62
2024-03-22 21:56:00,SystemResetWarning,0827.2,5.00,000.00,023.9,023.3,000.0,032.3,025.7,14.1,0000.0,0013.06,0004.18,0002.61
2024-03-22 21:57:00,SystemResetWarning,0827.2,5.00,000.00,023.9,023.3,000.0,032.3,025.7,13.9,0000.0,0013.57,0004.17,0002.61
2024-03-22 21:58:00,SystemResetWarning,0827.2,5.00,000.00,024.0,023.3,000.0,032.3,025.7,13.6,0000.0,0013.14,0004.20,0002.62
2024-03-22 21:59:00,SystemResetWarning,0827.2,4.99,000.00,024.0,023.3,000.0,032.3,025.7,13.4,0000.0,0012.42,0004.21,0002.63
